PARY

Details ICAO PARY (RBY)
Name RUBY
Region USA (Alaska)
Timezone America/Anchorage (UTC-8.0)
Plans Departing 1
Arriving 4
Stats Elevation 653 ft / 199 m (AMSL)
Location 64.727214° -155.469871°
Runways 1
Magnetic Variation 14.409° E
Sunrise 2018-05-24 12:30:37 UTC / 2018-05-24 04:30:37 Local
Sunset 2018-05-25 08:09:47 UTC / 2018-05-25 00:09:47 Local
Advertisement - Login to hide

Runways

ID Width Length Bearing (true) Bearing (mag) Surface Threshold Offset Overrun Length
03 100 ft / 30 m 3,988 ft / 1,216 m 50.77° 36.36° Gravel 0 ft / 0 m 900 ft / 274 m
21 100 ft / 30 m 3,988 ft / 1,216 m 230.78° 216.37° Gravel 0 ft / 0 m 300 ft / 91 m

Map

Weather


0- 5 10 15 20 25 30 35+ Temperature / ° C

Clouds and Precipitation
Forecast for 2018-05-25 06:00 UTC. Updated 2 hours ago

Ground ~20,000 ft ~40,000 ft Winds

METAR

PARY 250734Z AUTO 27005KT 10SM FEW009 OVC049 09/08 A2968

TAF

Not found

Frequencies

Recorded 119.92 MHz ASOS
Unicom 122.80 MHz CTAF
Warning: Do not use this data for real-world aviation or navigation. No guarantee of current accuracy is given.